Year,Month,Day,Hour,Minute,Value (Times are PST for temperature in C)
2011,04,16,00,00,3.90
2011,04,16,00,01,3.90
2011,04,16,00,02,3.90
2011,04,16,00,03,3.90
2011,04,16,00,04,3.90
2011,04,16,00,05,3.90
2011,04,16,00,06,3.90
2011,04,16,00,07,3.90
2011,04,16,00,08,3.80
2011,04,16,00,09,3.80
2011,04,16,00,10,3.80
2011,04,16,00,11,3.80
2011,04,16,00,12,3.80
2011,04,16,00,13,3.80
2011,04,16,00,14,3.70
2011,04,16,00,15,3.70
2011,04,16,00,16,3.70
2011,04,16,00,17,3.70
2011,04,16,00,18,3.70
2011,04,16,00,19,3.70
2011,04,16,00,20,3.60
2011,04,16,00,21,3.60
2011,04,16,00,22,3.60
2011,04,16,00,23,3.60
2011,04,16,00,24,3.60
2011,04,16,00,25,3.60
2011,04,16,00,26,3.60
2011,04,16,00,27,3.60
2011,04,16,00,28,3.50
2011,04,16,00,29,3.50
2011,04,16,00,30,3.50
2011,04,16,00,31,3.50
2011,04,16,00,32,3.50
2011,04,16,00,33,3.50
2011,04,16,00,34,3.50
2011,04,16,00,35,3.50
2011,04,16,00,36,3.50
2011,04,16,00,37,3.50
2011,04,16,00,38,3.50
2011,04,16,00,39,3.50
2011,04,16,00,40,3.50
2011,04,16,00,41,3.50
2011,04,16,00,42,3.50
2011,04,16,00,43,3.50
2011,04,16,00,44,3.50
2011,04,16,00,45,3.50
2011,04,16,00,46,3.50
2011,04,16,00,47,3.50
2011,04,16,00,48,3.50
2011,04,16,00,49,3.50
2011,04,16,00,50,3.60
2011,04,16,00,51,3.60
2011,04,16,00,52,3.60
2011,04,16,00,53,3.60
2011,04,16,00,54,3.60
2011,04,16,00,55,3.60
2011,04,16,00,56,3.60
2011,04,16,00,57,3.60
2011,04,16,00,58,3.60
2011,04,16,00,59,3.60
2011,04,16,01,00,3.60
2011,04,16,01,01,3.60
2011,04,16,01,02,3.60
2011,04,16,01,03,3.60
2011,04,16,01,04,3.60
2011,04,16,01,05,3.60
2011,04,16,01,06,3.60
2011,04,16,01,07,3.60
2011,04,16,01,08,3.60
2011,04,16,01,09,3.60
2011,04,16,01,10,3.70
2011,04,16,01,11,3.70
2011,04,16,01,12,3.70
2011,04,16,01,13,3.70
2011,04,16,01,14,3.70
2011,04,16,01,15,3.80
2011,04,16,01,16,3.80
2011,04,16,01,17,3.70
2011,04,16,01,18,3.70
2011,04,16,01,19,3.70
2011,04,16,01,20,3.70
2011,04,16,01,21,3.70
2011,04,16,01,22,3.70
2011,04,16,01,23,3.70
2011,04,16,01,24,3.70
2011,04,16,01,25,3.70
2011,04,16,01,26,3.70
2011,04,16,01,27,3.70
2011,04,16,01,28,3.70
2011,04,16,01,29,3.70
2011,04,16,01,30,3.70
2011,04,16,01,31,3.70
2011,04,16,01,32,3.70
2011,04,16,01,33,3.70
2011,04,16,01,34,3.70
2011,04,16,01,35,3.70
2011,04,16,01,36,3.70
2011,04,16,01,37,3.70
2011,04,16,01,38,3.70
2011,04,16,01,39,3.70
2011,04,16,01,40,3.70
2011,04,16,01,41,3.70
2011,04,16,01,42,3.70
2011,04,16,01,43,3.70
2011,04,16,01,44,3.70
2011,04,16,01,45,3.70
2011,04,16,01,46,3.70
2011,04,16,01,47,3.70
2011,04,16,01,48,3.70
2011,04,16,01,49,3.70
2011,04,16,01,50,3.80
2011,04,16,01,51,3.80
2011,04,16,01,52,3.80
2011,04,16,01,53,3.80
2011,04,16,01,54,3.80
2011,04,16,01,55,3.80
2011,04,16,01,56,3.80
2011,04,16,01,57,3.80
2011,04,16,01,58,3.80
2011,04,16,01,59,3.80
2011,04,16,02,00,3.80
2011,04,16,02,01,3.80
2011,04,16,02,02,3.80
2011,04,16,02,03,3.80
2011,04,16,02,04,3.80
2011,04,16,02,05,3.80
2011,04,16,02,06,3.80
2011,04,16,02,07,3.80
2011,04,16,02,08,3.80
2011,04,16,02,09,3.80
2011,04,16,02,10,3.80
2011,04,16,02,11,3.80
2011,04,16,02,12,3.80
2011,04,16,02,13,3.80
2011,04,16,02,14,3.80
2011,04,16,02,15,3.80
2011,04,16,02,16,3.80
2011,04,16,02,17,3.80
2011,04,16,02,18,3.80
2011,04,16,02,19,3.80
2011,04,16,02,20,3.80
2011,04,16,02,21,3.80
2011,04,16,02,22,3.80
2011,04,16,02,23,3.80
2011,04,16,02,24,3.80
2011,04,16,02,25,3.80
2011,04,16,02,26,3.70
2011,04,16,02,27,3.80
2011,04,16,02,28,3.70
2011,04,16,02,29,3.70
2011,04,16,02,30,3.70
2011,04,16,02,31,3.70
2011,04,16,02,32,3.70
2011,04,16,02,33,3.70
2011,04,16,02,34,3.70
2011,04,16,02,35,3.70
2011,04,16,02,36,3.70
2011,04,16,02,37,3.70
2011,04,16,02,38,3.70
2011,04,16,02,39,3.70
2011,04,16,02,40,3.70
2011,04,16,02,41,3.70
2011,04,16,02,42,3.70
2011,04,16,02,43,3.70
2011,04,16,02,44,3.70
2011,04,16,02,45,3.70
2011,04,16,02,46,3.70
2011,04,16,02,47,3.70
2011,04,16,02,48,3.70
2011,04,16,02,49,3.70
2011,04,16,02,50,3.70
2011,04,16,02,51,3.70
2011,04,16,02,52,3.70
2011,04,16,02,53,3.60
2011,04,16,02,54,3.60
2011,04,16,02,55,3.60
2011,04,16,02,56,3.60
2011,04,16,02,57,3.60
2011,04,16,02,58,3.60
2011,04,16,02,59,3.60
2011,04,16,03,00,3.50
2011,04,16,03,01,3.50
2011,04,16,03,02,3.50
2011,04,16,03,03,3.50
2011,04,16,03,04,3.50
2011,04,16,03,05,3.50
2011,04,16,03,06,3.40
2011,04,16,03,07,3.40
2011,04,16,03,08,3.40
2011,04,16,03,09,3.40
2011,04,16,03,10,3.40
2011,04,16,03,11,3.40
2011,04,16,03,12,3.30
2011,04,16,03,13,3.30
2011,04,16,03,14,3.30
2011,04,16,03,15,3.30
2011,04,16,03,16,3.30
2011,04,16,03,17,3.30
2011,04,16,03,18,3.30
2011,04,16,03,19,3.30
2011,04,16,03,20,3.30
2011,04,16,03,21,3.30
2011,04,16,03,22,3.20
2011,04,16,03,23,3.20
2011,04,16,03,24,3.20
2011,04,16,03,25,3.10
2011,04,16,03,26,3.10
2011,04,16,03,27,3.10
2011,04,16,03,28,3.10
2011,04,16,03,29,3.10
2011,04,16,03,30,3.10
2011,04,16,03,31,3.10
2011,04,16,03,32,3.10
2011,04,16,03,33,3.00
2011,04,16,03,34,3.00
2011,04,16,03,35,3.00
2011,04,16,03,36,3.00
2011,04,16,03,37,3.00
2011,04,16,03,38,3.00
2011,04,16,03,39,3.00
2011,04,16,03,40,3.00
2011,04,16,03,41,3.00
2011,04,16,03,42,3.00
2011,04,16,03,43,3.00
2011,04,16,03,44,3.00
2011,04,16,03,45,3.00
2011,04,16,03,46,3.00
2011,04,16,03,47,3.00
2011,04,16,03,48,3.00
2011,04,16,03,49,3.00
2011,04,16,03,50,2.90
2011,04,16,03,51,2.90
2011,04,16,03,52,2.90
2011,04,16,03,53,2.90
2011,04,16,03,54,2.90
2011,04,16,03,55,2.90
2011,04,16,03,56,2.90
2011,04,16,03,57,2.90
2011,04,16,03,58,2.90
2011,04,16,03,59,2.80
2011,04,16,04,00,2.80
2011,04,16,04,01,2.80
2011,04,16,04,02,2.80
2011,04,16,04,03,2.80
2011,04,16,04,04,2.80
2011,04,16,04,05,2.80
2011,04,16,04,06,2.80
2011,04,16,04,07,2.80
2011,04,16,04,08,2.80
2011,04,16,04,09,2.80
2011,04,16,04,10,2.80
2011,04,16,04,11,2.80
2011,04,16,04,12,2.80
2011,04,16,04,13,2.80
2011,04,16,04,14,2.80
2011,04,16,04,15,2.80
2011,04,16,04,16,2.80
2011,04,16,04,17,2.80
2011,04,16,04,18,2.80
2011,04,16,04,19,2.80
2011,04,16,04,20,2.80
2011,04,16,04,21,2.80
2011,04,16,04,22,2.80
2011,04,16,04,23,2.80
2011,04,16,04,24,2.80
2011,04,16,04,25,2.80
2011,04,16,04,26,2.80
2011,04,16,04,27,2.80
2011,04,16,04,28,2.80
2011,04,16,04,29,2.80
2011,04,16,04,30,2.80
2011,04,16,04,31,2.80
2011,04,16,04,32,2.80
2011,04,16,04,33,2.80
2011,04,16,04,34,2.90
2011,04,16,04,35,2.90
2011,04,16,04,36,2.90
2011,04,16,04,37,2.90
2011,04,16,04,38,2.90
2011,04,16,04,39,2.90
2011,04,16,04,40,2.90
2011,04,16,04,41,2.90
2011,04,16,04,42,2.90
2011,04,16,04,43,2.90
2011,04,16,04,44,2.90
2011,04,16,04,45,2.90
2011,04,16,04,46,2.90
2011,04,16,04,47,2.90
2011,04,16,04,48,2.90
2011,04,16,04,49,2.90
2011,04,16,04,50,2.90
2011,04,16,04,51,2.90
2011,04,16,04,52,2.90
2011,04,16,04,53,2.90
2011,04,16,04,54,2.90
2011,04,16,04,55,2.90
2011,04,16,04,56,2.90
2011,04,16,04,57,2.90
2011,04,16,04,58,2.80
2011,04,16,04,59,2.80
2011,04,16,05,00,2.80
2011,04,16,05,01,2.80
2011,04,16,05,02,2.80
2011,04,16,05,03,2.80
2011,04,16,05,04,2.80
2011,04,16,05,05,2.80
2011,04,16,05,06,2.80
2011,04,16,05,07,2.80
2011,04,16,05,08,2.80
2011,04,16,05,09,2.80
2011,04,16,05,10,2.70
2011,04,16,05,11,2.70
2011,04,16,05,12,2.70
2011,04,16,05,13,2.70
2011,04,16,05,14,2.70
2011,04,16,05,15,2.70
2011,04,16,05,16,2.70
2011,04,16,05,17,2.70
2011,04,16,05,18,2.70
2011,04,16,05,19,2.70
2011,04,16,05,20,2.70
2011,04,16,05,21,2.70
2011,04,16,05,22,2.70
2011,04,16,05,23,2.70
2011,04,16,05,24,2.70
2011,04,16,05,25,2.70
2011,04,16,05,26,2.70
2011,04,16,05,27,2.70
2011,04,16,05,28,2.70
2011,04,16,05,29,2.70
2011,04,16,05,30,2.70
2011,04,16,05,31,2.70
2011,04,16,05,32,2.70
2011,04,16,05,33,2.70
2011,04,16,05,34,2.70
2011,04,16,05,35,2.60
2011,04,16,05,36,2.60
2011,04,16,05,37,2.60
2011,04,16,05,38,2.60
2011,04,16,05,39,2.60
2011,04,16,05,40,2.60
2011,04,16,05,41,2.60
2011,04,16,05,42,2.60
2011,04,16,05,43,2.60
2011,04,16,05,44,2.60
2011,04,16,05,45,2.60
2011,04,16,05,46,2.60
2011,04,16,05,47,2.60
2011,04,16,05,48,2.60
2011,04,16,05,49,2.60
2011,04,16,05,50,2.60
2011,04,16,05,51,2.60
2011,04,16,05,52,2.60
2011,04,16,05,53,2.60
2011,04,16,08,45,4.90
2011,04,16,08,46,4.90
2011,04,16,08,47,5.00
2011,04,16,08,48,5.00
2011,04,16,08,49,5.00
2011,04,16,08,50,5.10
2011,04,16,08,51,5.10
2011,04,16,08,52,5.20
2011,04,16,08,53,5.20
2011,04,16,08,54,5.20
2011,04,16,08,55,5.30
2011,04,16,08,56,5.30
2011,04,16,08,57,5.40
2011,04,16,08,58,5.40
2011,04,16,08,59,5.40
2011,04,16,09,00,5.40
2011,04,16,09,01,5.50
2011,04,16,09,02,5.50
2011,04,16,09,03,5.50
2011,04,16,09,04,5.60
2011,04,16,09,05,5.60
2011,04,16,09,06,5.60
2011,04,16,09,07,5.60
2011,04,16,09,08,5.70
2011,04,16,09,09,5.70
2011,04,16,09,10,5.80
2011,04,16,09,11,5.90
2011,04,16,09,12,5.90
2011,04,16,09,13,5.80
2011,04,16,09,14,5.90
2011,04,16,09,15,5.90
2011,04,16,09,16,6.00
2011,04,16,09,17,6.10
2011,04,16,09,18,6.20
2011,04,16,09,19,6.30
2011,04,16,09,20,6.40
2011,04,16,09,21,6.50
2011,04,16,09,22,6.60
2011,04,16,09,23,6.60
2011,04,16,09,24,6.70
2011,04,16,09,25,6.80
2011,04,16,09,26,6.90
2011,04,16,09,27,6.90
2011,04,16,09,28,6.90
2011,04,16,09,29,7.00
2011,04,16,09,30,7.10
2011,04,16,09,31,7.20
2011,04,16,09,32,7.20
2011,04,16,09,33,7.20
2011,04,16,09,34,7.30
2011,04,16,09,35,7.20
2011,04,16,09,36,7.20
2011,04,16,09,37,7.10
2011,04,16,09,38,7.10
2011,04,16,09,39,7.10
2011,04,16,09,40,7.20
2011,04,16,09,41,7.30
2011,04,16,09,42,7.30
2011,04,16,09,43,7.40
2011,04,16,09,44,7.50
2011,04,16,09,45,7.50
2011,04,16,09,46,7.40
2011,04,16,09,47,7.30
2011,04,16,09,48,7.30
2011,04,16,09,49,7.40
2011,04,16,09,50,7.50
2011,04,16,09,51,7.60
2011,04,16,09,52,7.70
2011,04,16,09,53,7.90
2011,04,16,09,54,8.10
2011,04,16,09,55,8.10
2011,04,16,09,56,8.10
2011,04,16,09,57,8.10
2011,04,16,09,58,8.10
2011,04,16,09,59,8.10
2011,04,16,10,00,8.10
2011,04,16,10,01,8.10
2011,04,16,10,02,8.10
2011,04,16,10,03,8.00
2011,04,16,10,04,8.00
2011,04,16,10,05,7.90
2011,04,16,10,06,7.90
2011,04,16,10,07,7.80
2011,04,16,10,08,7.80
2011,04,16,10,09,7.90
2011,04,16,10,10,7.90
2011,04,16,10,11,8.10
2011,04,16,10,12,8.20
2011,04,16,10,13,8.30
2011,04,16,10,14,8.40
2011,04,16,10,15,8.50
2011,04,16,10,16,8.60
2011,04,16,10,17,8.60
2011,04,16,10,18,8.60
2011,04,16,10,19,8.70
2011,04,16,10,20,8.70
2011,04,16,10,21,8.70
2011,04,16,10,22,8.70
2011,04,16,10,23,8.70
2011,04,16,10,24,8.70
2011,04,16,10,25,8.80
2011,04,16,10,26,8.80
2011,04,16,10,27,8.80
2011,04,16,10,28,8.80
2011,04,16,10,29,8.80
2011,04,16,10,30,8.80
2011,04,16,10,31,8.80
2011,04,16,10,32,8.80
2011,04,16,10,33,8.80
2011,04,16,10,34,8.70
2011,04,16,10,35,8.70
2011,04,16,10,36,8.70
2011,04,16,10,37,8.70
2011,04,16,10,38,8.80
2011,04,16,10,39,8.90
2011,04,16,10,40,8.90
2011,04,16,10,41,9.00
2011,04,16,10,42,8.90
2011,04,16,10,43,8.80
2011,04,16,10,44,8.80
2011,04,16,10,45,8.80
2011,04,16,10,46,8.80
2011,04,16,10,47,8.80
2011,04,16,10,48,8.90
2011,04,16,10,49,9.00
2011,04,16,10,50,9.00
2011,04,16,10,51,9.10
2011,04,16,10,52,9.10
2011,04,16,10,53,9.10
2011,04,16,10,54,9.10
2011,04,16,10,55,9.00
2011,04,16,10,56,9.10
2011,04,16,10,57,9.10
2011,04,16,10,58,9.20
2011,04,16,10,59,9.30
2011,04,16,11,00,9.30
2011,04,16,11,01,9.40
2011,04,16,11,02,9.50
2011,04,16,11,03,9.60
2011,04,16,11,04,9.70
2011,04,16,11,05,9.70
2011,04,16,11,06,9.70
2011,04,16,11,07,9.70
2011,04,16,11,08,9.70
2011,04,16,11,09,9.70
2011,04,16,11,10,9.60
2011,04,16,11,11,9.50
2011,04,16,11,12,9.40
2011,04,16,11,13,9.30
2011,04,16,11,14,9.30
2011,04,16,11,15,9.30
2011,04,16,11,16,9.30
2011,04,16,11,17,9.40
2011,04,16,11,18,9.40
2011,04,16,11,19,9.40
2011,04,16,11,20,9.40
2011,04,16,11,21,9.40
2011,04,16,11,22,9.40
2011,04,16,11,23,9.40
2011,04,16,11,24,9.50
2011,04,16,11,25,9.50
2011,04,16,11,26,9.60
2011,04,16,11,27,9.60
2011,04,16,11,28,9.70
2011,04,16,11,29,9.70
2011,04,16,11,30,9.70
2011,04,16,11,31,9.80
2011,04,16,11,32,9.80
2011,04,16,11,33,9.90
2011,04,16,11,34,10.00
2011,04,16,11,35,10.00
2011,04,16,11,36,10.00
2011,04,16,11,37,10.00
2011,04,16,11,38,9.90
2011,04,16,11,39,9.90
2011,04,16,11,40,9.90
2011,04,16,11,41,9.80
2011,04,16,11,42,9.80
2011,04,16,11,43,9.80
2011,04,16,11,44,9.90
2011,04,16,11,45,10.00
2011,04,16,11,46,9.90
2011,04,16,11,47,9.80
2011,04,16,11,48,9.80
2011,04,16,11,49,9.80
2011,04,16,11,50,9.70
2011,04,16,11,51,9.70
2011,04,16,11,52,9.80
2011,04,16,11,53,9.80
2011,04,16,11,54,9.90
2011,04,16,11,55,9.90
2011,04,16,11,56,10.00
2011,04,16,11,57,10.10
2011,04,16,11,58,10.10
2011,04,16,11,59,10.20
2011,04,16,12,00,10.20
2011,04,16,12,01,10.30
2011,04,16,12,02,10.30
2011,04,16,12,03,10.40
2011,04,16,12,04,10.40
2011,04,16,12,05,10.50
2011,04,16,12,06,10.50
2011,04,16,12,07,10.60
2011,04,16,12,08,10.70
2011,04,16,12,09,10.60
2011,04,16,12,10,10.50
2011,04,16,12,11,10.30
2011,04,16,12,12,10.20
2011,04,16,12,13,10.20
2011,04,16,12,14,10.20
2011,04,16,12,15,10.20
2011,04,16,12,16,10.20
2011,04,16,12,17,10.10
2011,04,16,12,18,9.90
2011,04,16,12,19,9.90
2011,04,16,12,20,9.80
2011,04,16,12,21,9.90
2011,04,16,12,22,10.00
2011,04,16,12,23,10.00
2011,04,16,12,24,10.10
2011,04,16,12,25,10.20
2011,04,16,12,26,10.30
2011,04,16,12,27,10.40
2011,04,16,12,28,10.50
2011,04,16,12,29,10.60
2011,04,16,12,30,10.70
2011,04,16,12,31,10.70
2011,04,16,12,32,10.70
2011,04,16,12,33,10.70
2011,04,16,12,34,10.60
2011,04,16,12,35,10.50
2011,04,16,12,36,10.40
2011,04,16,12,37,10.40
2011,04,16,12,38,10.20
2011,04,16,12,39,10.10
2011,04,16,12,40,10.00
2011,04,16,12,41,9.90
2011,04,16,12,42,9.80
2011,04,16,12,43,9.70
2011,04,16,12,44,9.80
2011,04,16,12,45,9.80
2011,04,16,12,46,9.90
2011,04,16,12,47,9.90
2011,04,16,12,48,10.00
2011,04,16,12,49,10.10
2011,04,16,12,50,10.10
2011,04,16,12,51,10.20
2011,04,16,12,52,10.10
2011,04,16,12,53,10.00
2011,04,16,12,54,10.00
2011,04,16,12,55,10.10
2011,04,16,12,56,10.10
2011,04,16,12,57,10.20
2011,04,16,12,58,10.30
2011,04,16,12,59,10.40
2011,04,16,13,00,10.50
2011,04,16,13,01,10.50
2011,04,16,13,02,10.60
2011,04,16,13,03,10.70
2011,04,16,13,04,10.70
2011,04,16,13,05,10.60
2011,04,16,13,06,10.60
2011,04,16,13,07,10.40
2011,04,16,13,08,10.30
2011,04,16,13,09,10.20
2011,04,16,13,10,10.00
2011,04,16,13,11,9.80
2011,04,16,13,12,9.70
2011,04,16,13,13,9.70
2011,04,16,13,14,9.70
2011,04,16,13,15,9.80
2011,04,16,13,16,9.80
2011,04,16,13,17,9.70
2011,04,16,13,18,9.60
2011,04,16,13,19,9.60
2011,04,16,13,20,9.60
2011,04,16,13,21,9.60
2011,04,16,13,22,9.50
2011,04,16,13,23,9.30
2011,04,16,13,24,9.00
2011,04,16,13,25,8.70
2011,04,16,13,26,8.50
2011,04,16,13,27,8.30
2011,04,16,13,28,8.20
2011,04,16,13,29,8.10
2011,04,16,13,30,8.10
2011,04,16,13,31,8.00
2011,04,16,13,32,8.00
2011,04,16,13,33,8.00
2011,04,16,13,34,7.90
2011,04,16,13,35,7.90
2011,04,16,13,36,7.90
2011,04,16,13,37,7.80
2011,04,16,13,38,7.80
2011,04,16,13,39,7.70
2011,04,16,13,40,7.70
2011,04,16,13,41,7.70
2011,04,16,13,42,7.70
2011,04,16,13,43,7.70
2011,04,16,13,44,7.80
2011,04,16,13,45,7.80
2011,04,16,13,46,7.80
2011,04,16,13,47,7.80
2011,04,16,13,48,7.90
2011,04,16,13,49,7.90
2011,04,16,13,50,7.90
2011,04,16,13,51,7.90
2011,04,16,13,52,7.90
2011,04,16,13,53,8.00
2011,04,16,13,54,8.00
2011,04,16,13,55,7.90
2011,04,16,13,56,7.90
2011,04,16,13,57,7.90
2011,04,16,13,58,7.90
2011,04,16,13,59,7.80
2011,04,16,14,00,7.80
2011,04,16,14,01,7.70
2011,04,16,14,02,7.70
2011,04,16,14,03,7.70
2011,04,16,14,04,7.70
2011,04,16,14,05,7.70
2011,04,16,14,06,7.70
2011,04,16,14,07,7.80
2011,04,16,14,08,7.90
2011,04,16,14,09,8.00
2011,04,16,14,10,8.10
2011,04,16,14,11,8.20
2011,04,16,14,12,8.30
2011,04,16,14,13,8.30
2011,04,16,14,14,8.30
2011,04,16,14,15,8.30
2011,04,16,14,16,8.30
2011,04,16,14,17,8.40
2011,04,16,14,18,8.40
2011,04,16,14,19,8.30
2011,04,16,14,20,8.40
2011,04,16,14,21,8.40
2011,04,16,14,22,8.50
2011,04,16,14,23,8.50
2011,04,16,14,24,8.50
2011,04,16,14,25,8.50
2011,04,16,14,26,8.50
2011,04,16,14,27,8.40
2011,04,16,14,28,8.40
2011,04,16,14,29,8.30
2011,04,16,14,30,8.40
2011,04,16,14,31,8.40
2011,04,16,14,32,8.40
2011,04,16,14,33,8.40
2011,04,16,14,34,8.40
2011,04,16,14,35,8.50
2011,04,16,14,36,8.60
2011,04,16,14,37,8.70
2011,04,16,14,38,8.70
2011,04,16,14,39,8.70
2011,04,16,14,40,8.70
2011,04,16,14,41,8.60
2011,04,16,14,42,8.60
2011,04,16,14,43,8.60
2011,04,16,14,44,8.50
2011,04,16,14,45,8.50
2011,04,16,14,46,8.50
2011,04,16,14,47,8.60
2011,04,16,14,48,8.60
2011,04,16,14,49,8.60
2011,04,16,14,50,8.70
2011,04,16,14,51,8.70
2011,04,16,14,52,8.70
2011,04,16,14,53,8.80
2011,04,16,14,54,8.90
2011,04,16,14,55,8.90
2011,04,16,14,56,8.90
2011,04,16,14,57,8.90
2011,04,16,14,58,8.90
2011,04,16,14,59,8.80
2011,04,16,15,00,8.80
2011,04,16,15,01,8.80
2011,04,16,15,02,8.70
2011,04,16,15,03,8.70
2011,04,16,15,04,8.70
2011,04,16,15,05,8.70
2011,04,16,15,06,8.60
2011,04,16,15,07,8.60
2011,04,16,15,08,8.60
2011,04,16,15,09,8.60
2011,04,16,15,10,8.60
2011,04,16,15,11,8.50
2011,04,16,15,12,8.40
2011,04,16,15,13,8.30
2011,04,16,15,14,8.20
2011,04,16,15,15,8.20
2011,04,16,15,16,8.20
2011,04,16,15,17,8.10
2011,04,16,15,18,8.00
2011,04,16,15,19,8.00
2011,04,16,15,20,7.90
2011,04,16,15,21,7.90
2011,04,16,15,22,8.00
2011,04,16,15,23,8.10
2011,04,16,15,24,8.20
2011,04,16,15,25,8.20
2011,04,16,15,26,8.20
2011,04,16,15,27,8.10
2011,04,16,15,28,8.10
2011,04,16,15,29,8.10
2011,04,16,15,30,8.10
2011,04,16,15,31,8.20
2011,04,16,15,32,8.20
2011,04,16,15,33,8.20
2011,04,16,15,34,8.20
2011,04,16,15,35,8.20
2011,04,16,15,36,8.20
2011,04,16,15,37,8.30
2011,04,16,15,38,8.20
2011,04,16,15,39,8.20
2011,04,16,15,40,8.20
2011,04,16,15,41,8.20
2011,04,16,15,42,8.20
2011,04,16,15,43,8.20
2011,04,16,15,44,8.20
2011,04,16,15,45,8.10
2011,04,16,15,46,8.10
2011,04,16,15,47,8.00
2011,04,16,15,48,8.00
2011,04,16,15,49,8.00
2011,04,16,15,50,8.00
2011,04,16,15,51,8.00
2011,04,16,15,52,8.10
2011,04,16,15,53,8.00
2011,04,16,15,54,8.00
2011,04,16,15,55,7.90
2011,04,16,15,56,7.90
2011,04,16,15,57,8.00
2011,04,16,15,58,8.00
2011,04,16,15,59,8.10
2011,04,16,16,00,8.20
2011,04,16,16,01,8.20
2011,04,16,16,02,8.30
2011,04,16,16,03,8.40
2011,04,16,16,04,8.40
2011,04,16,16,05,8.50
2011,04,16,16,06,8.50
2011,04,16,16,07,8.50
2011,04,16,16,08,8.50
2011,04,16,16,09,8.50
2011,04,16,16,10,8.50
2011,04,16,16,11,8.40
2011,04,16,16,12,8.40
2011,04,16,16,13,8.40
2011,04,16,16,14,8.40
2011,04,16,16,15,8.40
2011,04,16,16,16,8.40
2011,04,16,16,17,8.40
2011,04,16,16,18,8.30
2011,04,16,16,19,8.30
2011,04,16,16,20,8.30
2011,04,16,16,21,8.30
2011,04,16,16,22,8.30
2011,04,16,16,23,8.30
2011,04,16,16,24,8.30
2011,04,16,16,25,8.30
2011,04,16,16,26,8.30
2011,04,16,16,27,8.30
2011,04,16,16,28,8.30
2011,04,16,16,29,8.30
2011,04,16,16,30,8.30
2011,04,16,16,31,8.30
2011,04,16,16,32,8.30
2011,04,16,16,33,8.30
2011,04,16,16,34,8.30
2011,04,16,16,35,8.20
2011,04,16,16,36,8.20
2011,04,16,16,37,8.20
2011,04,16,16,38,8.20
2011,04,16,16,39,8.20
2011,04,16,16,40,8.20
2011,04,16,16,41,8.10
2011,04,16,16,42,8.10
2011,04,16,16,43,8.10
2011,04,16,16,44,8.10
2011,04,16,16,45,8.10
2011,04,16,16,46,8.10
2011,04,16,16,47,8.10
2011,04,16,16,48,8.10
2011,04,16,16,49,8.10
2011,04,16,16,50,8.00
2011,04,16,16,51,8.00
2011,04,16,16,52,8.00
2011,04,16,16,53,7.90
2011,04,16,16,54,7.90
2011,04,16,16,55,7.90
2011,04,16,16,56,7.90
2011,04,16,16,57,7.90
2011,04,16,16,58,7.90
2011,04,16,16,59,7.90
2011,04,16,17,00,7.90
2011,04,16,17,01,7.90
2011,04,16,17,02,7.90
2011,04,16,17,03,7.90
2011,04,16,17,04,7.90
2011,04,16,17,05,7.90
2011,04,16,17,06,7.90
2011,04,16,17,07,7.90
2011,04,16,17,08,7.90
2011,04,16,17,09,7.90
2011,04,16,17,10,7.80
2011,04,16,17,11,7.80
2011,04,16,17,12,7.80
2011,04,16,17,13,7.80
2011,04,16,17,14,7.80
2011,04,16,17,15,7.80
2011,04,16,17,16,7.80
2011,04,16,17,17,7.80
2011,04,16,17,18,7.80
2011,04,16,17,19,7.80
2011,04,16,17,20,7.80
2011,04,16,17,21,7.80
2011,04,16,17,22,7.80
2011,04,16,17,23,7.90
2011,04,16,17,24,7.90
2011,04,16,17,25,8.00
2011,04,16,17,26,8.00
2011,04,16,17,27,8.10
2011,04,16,17,28,8.10
2011,04,16,17,29,8.20
2011,04,16,17,30,8.20
2011,04,16,17,31,8.20
2011,04,16,17,32,8.20
2011,04,16,17,33,8.20
2011,04,16,17,34,8.20
2011,04,16,17,35,8.20
2011,04,16,17,36,8.10
2011,04,16,17,37,8.10
2011,04,16,17,38,8.10
2011,04,16,17,39,8.00
2011,04,16,17,40,8.00
2011,04,16,17,41,7.90
2011,04,16,17,42,7.90
2011,04,16,17,43,7.90
2011,04,16,17,44,7.90
2011,04,16,17,45,7.80
2011,04,16,17,46,7.80
2011,04,16,17,47,7.80
2011,04,16,17,48,7.70
2011,04,16,17,49,7.70
2011,04,16,17,50,7.70
2011,04,16,17,51,7.70
2011,04,16,17,52,7.70
2011,04,16,17,53,7.70
2011,04,16,17,54,7.70
2011,04,16,17,55,7.60
2011,04,16,17,56,7.70
2011,04,16,17,57,7.70
2011,04,16,17,58,7.70
2011,04,16,17,59,7.70
2011,04,16,18,00,7.70
2011,04,16,18,01,7.70
2011,04,16,18,02,7.70
2011,04,16,18,03,7.70
2011,04,16,18,04,7.70
2011,04,16,18,05,7.70
2011,04,16,18,06,7.70
2011,04,16,18,07,7.70
2011,04,16,18,08,7.70
2011,04,16,18,09,7.70
2011,04,16,18,10,7.70
2011,04,16,18,11,7.80
2011,04,16,18,12,7.80
2011,04,16,18,13,7.80
2011,04,16,18,14,7.80
2011,04,16,18,15,7.80
2011,04,16,18,16,7.80
2011,04,16,18,17,7.80
2011,04,16,18,18,7.80
2011,04,16,18,19,7.80
2011,04,16,18,20,7.80
2011,04,16,18,21,7.80
2011,04,16,18,22,7.80
2011,04,16,18,23,7.80
2011,04,16,18,24,7.80
2011,04,16,18,25,7.80
2011,04,16,18,26,7.80
2011,04,16,18,27,7.80
2011,04,16,18,28,7.80
2011,04,16,18,29,7.80
2011,04,16,18,30,7.80
2011,04,16,18,31,7.80
2011,04,16,18,32,7.80
2011,04,16,18,33,7.80
2011,04,16,18,34,7.80
2011,04,16,18,35,7.80
2011,04,16,18,36,7.70
2011,04,16,18,37,7.70
2011,04,16,18,38,7.70
2011,04,16,18,39,7.70
2011,04,16,18,40,7.70
2011,04,16,18,41,7.60
2011,04,16,18,42,7.60
2011,04,16,18,43,7.50
2011,04,16,18,44,7.50
2011,04,16,18,45,7.40
2011,04,16,18,46,7.40
2011,04,16,18,47,7.30
2011,04,16,18,48,7.30
2011,04,16,18,49,7.30
2011,04,16,18,50,7.20
2011,04,16,18,51,7.20
2011,04,16,18,52,7.20
2011,04,16,18,53,7.10
2011,04,16,18,54,7.00
2011,04,16,18,55,6.90
2011,04,16,18,56,6.90
2011,04,16,18,57,6.80
2011,04,16,18,58,6.80
2011,04,16,18,59,6.70
2011,04,16,19,00,6.70
2011,04,16,19,01,6.60
2011,04,16,19,02,6.60
2011,04,16,19,03,6.60
2011,04,16,19,04,6.50
2011,04,16,19,05,6.50
2011,04,16,19,06,6.50
2011,04,16,19,07,6.50
2011,04,16,19,08,6.50
2011,04,16,19,09,6.40
2011,04,16,19,10,6.40
2011,04,16,19,11,6.40
2011,04,16,19,12,6.40
2011,04,16,19,13,6.40
2011,04,16,19,14,6.40
2011,04,16,19,15,6.40
2011,04,16,19,16,6.40
2011,04,16,19,17,6.40
2011,04,16,19,18,6.40
2011,04,16,19,19,6.30
2011,04,16,19,20,6.30
2011,04,16,19,21,6.40
2011,04,16,19,22,6.30
2011,04,16,19,23,6.30
2011,04,16,19,24,6.30
2011,04,16,19,25,6.30
2011,04,16,19,26,6.30
2011,04,16,19,27,6.30
2011,04,16,19,28,6.30
2011,04,16,19,29,6.30
2011,04,16,19,30,6.30
2011,04,16,19,31,6.30
2011,04,16,19,32,6.30
2011,04,16,19,33,6.40
2011,04,16,19,34,6.40
2011,04,16,19,35,6.40
2011,04,16,19,36,6.40
2011,04,16,19,37,6.40
2011,04,16,19,38,6.40
2011,04,16,19,39,6.40
2011,04,16,19,40,6.40
2011,04,16,19,41,6.40
2011,04,16,19,42,6.40
2011,04,16,19,43,6.40
2011,04,16,19,44,6.30
2011,04,16,19,45,6.30
2011,04,16,19,46,6.30
2011,04,16,19,47,6.20
2011,04,16,19,48,6.20
2011,04,16,19,49,6.20
2011,04,16,19,50,6.10
2011,04,16,19,51,6.10
2011,04,16,19,52,6.00
2011,04,16,19,53,6.00
2011,04,16,19,54,5.90
2011,04,16,19,55,5.90
2011,04,16,19,56,5.90
2011,04,16,19,57,5.80
2011,04,16,19,58,5.80
2011,04,16,19,59,5.80
2011,04,16,20,00,5.70
2011,04,16,20,01,5.70
2011,04,16,20,02,5.60
2011,04,16,20,03,5.50
2011,04,16,20,04,5.50
2011,04,16,20,05,5.40
2011,04,16,20,06,5.40
2011,04,16,20,07,5.40
2011,04,16,20,08,5.30
2011,04,16,20,09,5.30
2011,04,16,20,10,5.30
2011,04,16,20,11,5.20
2011,04,16,20,12,5.20
2011,04,16,20,13,5.10
2011,04,16,20,14,5.10
2011,04,16,20,15,5.00
2011,04,16,20,16,5.00
2011,04,16,20,17,4.90
2011,04,16,20,18,4.90
2011,04,16,20,19,4.90
2011,04,16,20,20,4.80
2011,04,16,20,21,4.80
2011,04,16,20,22,4.80
2011,04,16,20,23,4.80
2011,04,16,20,24,4.80
2011,04,16,20,25,4.70
2011,04,16,20,26,4.70
2011,04,16,20,27,4.70
2011,04,16,20,28,4.60
2011,04,16,20,29,4.60
2011,04,16,20,30,4.60
2011,04,16,20,31,4.60
2011,04,16,20,32,4.50
2011,04,16,20,33,4.50
2011,04,16,20,34,4.50
2011,04,16,20,35,4.40
2011,04,16,20,36,4.40
2011,04,16,20,37,4.40
2011,04,16,20,38,4.40
2011,04,16,20,39,4.40
2011,04,16,20,40,4.30
2011,04,16,20,41,4.30
2011,04,16,20,42,4.30
2011,04,16,20,43,4.30
2011,04,16,20,44,4.20
2011,04,16,20,45,4.20
2011,04,16,20,46,4.20
2011,04,16,20,47,4.10
2011,04,16,20,48,4.10
2011,04,16,20,49,4.10
2011,04,16,20,50,4.10
2011,04,16,20,51,4.00
2011,04,16,20,52,4.00
2011,04,16,20,53,4.00
2011,04,16,20,54,3.90